Weather History for KMDQ - February, 2014

Change the Weather History Date:

Monday, February 10, 2014

  Actual Average (KHSV) Record (KHSV)
Temperature  
Mean Temperature 32 °F 44 °F  
Max Temperature 35 °F 55 °F 76 °F (1938)
Min Temperature 30 °F 34 °F 9 °F (1971)
Degree Days  
Heating Degree Days 32 21  
Month to date heating degree days 215  
Since 1 July heating degree days 2125  
Cooling Degree Days 0 0  
Month to date cooling degree days 0  
Year to date cooling degree days 0  
Moisture  
Dew Point 25 °F    
Average Humidity 75    
Maximum Humidity 93    
Minimum Humidity 51    
Precipitation  
Precipitation 0.00 in 0.17 in 4.04 in (1994)
Month to date precipitation 1.68  
Year to date precipitation 6.57  
Snow  
Snow 0.00 in - - ()
Month to date snowfall  
Since 1 July snowfall  
Snow Depth -    
Sea Level Pressure  
Sea Level Pressure 30.20 in    
Wind  
Wind Speed 9 mph (North)    
Max Wind Speed 15 mph    
Max Gust Speed 18 mph    
Visibility 8 miles    
Events      
T = Trace of Precipitation, MM = Missing Value Source: NWS Daily Summary

Daily Weather History Graph

Daily Weather History Graph

Search for Another Location

Airport or City:

Trip Planner

Search our weather history database for the weather conditions in past years. The results will help you decide how hot, cold, wet, or windy it might be!

Date:

Astronomy

Feb. 10, 2014 Rise Set
Actual Time 6:37 AM CST 5:24 PM CST
Civil Twilight 6:10 AM CST 5:50 PM CST
Nautical Twilight 5:41 AM CST 6:20 PM CST
Astronomical Twilight 5:11 AM CST 6:49 PM CST
Moon 1:56 PM CST (2/10) 3:25 AM CST (2/10)
Length of Visible Light 11h 39m
Length of Day
10h 47m
Waxing Gibbous, 85% of the Moon is Illuminated
Feb 10
Waxing Gibbous
Feb 14
Full
Feb 22
Last Quarter
Mar 1
New
Mar 8
First Quarter

Hourly Weather History & Observations

Time (CST) Temp. Windchill Dew Point Humidity Pressure Visibility Wind Dir Wind Speed Gust Speed Precip Events Conditions
12:15 AM 35.6 °F 29.2 °F 32.0 °F 87% 30.16 in 7.0 mi North 8.1 mph - N/A   Overcast
12:35 AM 35.6 °F 29.2 °F 32.0 °F 87% 30.15 in 4.0 mi North 8.1 mph - N/A   Light Drizzle
12:55 AM 33.8 °F 27.0 °F 32.0 °F 93% 30.14 in 4.0 mi NNE 8.1 mph 18.4 mph N/A   Overcast
1:15 AM 33.8 °F 26.4 °F 32.0 °F 93% 30.14 in 5.0 mi North 9.2 mph - N/A   Overcast
1:35 AM 33.8 °F 28.6 °F 30.2 °F 87% 30.14 in 5.0 mi North 5.8 mph - N/A   Overcast
1:55 AM 33.8 °F 27.7 °F 30.2 °F 87% 30.13 in 5.0 mi North 6.9 mph - N/A   Overcast
2:15 AM 33.8 °F 30.8 °F 30.2 °F 87% 30.12 in 5.0 mi NNE 3.5 mph - N/A   Overcast
2:35 AM 33.8 °F 29.6 °F 30.2 °F 87% 30.13 in 7.0 mi North 4.6 mph - N/A   Overcast
2:55 AM 33.8 °F 27.7 °F 30.2 °F 87% 30.13 in 7.0 mi NNE 6.9 mph - N/A   Overcast
3:15 AM 33.8 °F 29.6 °F 30.2 °F 87% 30.12 in 5.0 mi North 4.6 mph - N/A   Overcast
3:35 AM 33.8 °F 27.7 °F 30.2 °F 87% 30.12 in 5.0 mi North 6.9 mph - N/A   Overcast
3:55 AM 33.8 °F 28.6 °F 30.2 °F 87% 30.12 in 7.0 mi North 5.8 mph - N/A   Overcast
4:15 AM 33.8 °F 28.6 °F 30.2 °F 87% 30.13 in 7.0 mi North 5.8 mph - N/A   Overcast
4:35 AM 33.8 °F 27.0 °F 30.2 °F 87% 30.14 in 7.0 mi North 8.1 mph - N/A   Overcast
4:55 AM 33.8 °F 27.0 °F 30.2 °F 87% 30.14 in 7.0 mi North 8.1 mph - N/A   Overcast
5:15 AM 32.0 °F 23.6 °F 30.2 °F 93% 30.15 in 5.0 mi North 10.4 mph - N/A   Light Drizzle
5:35 AM 32.0 °F 23.6 °F 30.2 °F 93% 30.15 in 5.0 mi North 10.4 mph - N/A   Overcast
5:55 AM 32.0 °F 24.2 °F 30.2 °F 93% 30.15 in 4.0 mi North 9.2 mph - N/A   Overcast
6:15 AM 32.0 °F 27.5 °F 30.2 °F 93% 30.17 in 5.0 mi North 4.6 mph - N/A   Overcast
6:35 AM 32.0 °F 26.4 °F 28.4 °F 87% 30.17 in 7.0 mi North 5.8 mph - N/A   Overcast
6:55 AM 32.0 °F 23.6 °F 28.4 °F 87% 30.18 in 5.0 mi North 10.4 mph - N/A   Haze
7:15 AM 32.0 °F 23.0 °F 28.4 °F 87% 30.18 in 4.0 mi North 11.5 mph - N/A   Overcast
7:35 AM 32.0 °F 23.0 °F 28.4 °F 87% 30.20 in 4.0 mi North 11.5 mph 17.3 mph N/A   Overcast
7:55 AM 32.0 °F 21.6 °F 28.4 °F 87% 30.21 in 3.0 mi North 15.0 mph - N/A   Overcast
8:15 AM 32.0 °F 23.0 °F 28.4 °F 87% 30.21 in 3.0 mi North 11.5 mph - N/A   Overcast
8:35 AM 32.0 °F 23.6 °F 28.4 °F 87% 30.22 in 2.5 mi North 10.4 mph - N/A   Overcast
8:55 AM 30.2 °F 20.2 °F 26.6 °F 86% 30.22 in 4.0 mi North 12.7 mph 18.4 mph N/A   Overcast
9:15 AM 30.2 °F 20.8 °F 26.6 °F 86% 30.22 in 5.0 mi North 11.5 mph 17.3 mph N/A   Overcast
9:35 AM 30.2 °F 23.4 °F 26.6 °F 86% 30.23 in 5.0 mi North 6.9 mph 17.3 mph N/A   Haze
9:55 AM 30.2 °F 21.3 °F 26.6 °F 86% 30.23 in 7.0 mi North 10.4 mph 16.1 mph N/A   Overcast
10:15 AM 32.0 °F 23.6 °F 26.6 °F 80% 30.24 in 7.0 mi North 10.4 mph - N/A   Overcast
10:35 AM 32.0 °F 23.6 °F 26.6 °F 80% 30.24 in 7.0 mi North 10.4 mph - N/A   Overcast
10:55 AM 32.0 °F 24.2 °F 26.6 °F 80% 30.24 in 7.0 mi North 9.2 mph - N/A   Overcast
11:15 AM 32.0 °F 24.2 °F 26.6 °F 80% 30.23 in 7.0 mi North 9.2 mph - N/A   Overcast
11:35 AM 32.0 °F 22.5 °F 26.6 °F 80% 30.22 in 7.0 mi North 12.7 mph 16.1 mph N/A   Overcast
11:55 AM 32.0 °F 24.2 °F 26.6 °F 80% 30.22 in 7.0 mi North 9.2 mph - N/A   Overcast
12:15 PM 32.0 °F 24.8 °F 26.6 °F 80% 30.21 in 7.0 mi NNE 8.1 mph - N/A   Overcast
12:35 PM 32.0 °F 23.0 °F 24.8 °F 75% 30.20 in 7.0 mi NNE 11.5 mph 18.4 mph N/A   Overcast
12:55 PM 32.0 °F 22.5 °F 24.8 °F 75% 30.19 in 7.0 mi NNE 12.7 mph - N/A   Overcast
1:15 PM 32.0 °F 24.8 °F 24.8 °F 75% 30.19 in 10.0 mi North 8.1 mph - N/A   Overcast
1:35 PM 32.0 °F 24.2 °F 23.0 °F 69% 30.18 in 10.0 mi NNE 9.2 mph - N/A   Overcast
1:55 PM 33.8 °F 24.8 °F 23.0 °F 65% 30.19 in 10.0 mi NNE 12.7 mph 16.1 mph N/A   Overcast
2:15 PM 33.8 °F 26.4 °F 23.0 °F 65% 30.18 in 10.0 mi North 9.2 mph - N/A   Overcast
2:35 PM 33.8 °F 25.8 °F 23.0 °F 65% 30.18 in 10.0 mi NNE 10.4 mph 17.3 mph N/A   Mostly Cloudy
2:55 PM 33.8 °F 25.8 °F 23.0 °F 65% 30.18 in 10.0 mi NNE 10.4 mph - N/A   Mostly Cloudy
3:15 PM 33.8 °F 25.3 °F 23.0 °F 65% 30.19 in 10.0 mi NNE 11.5 mph 17.3 mph N/A   Mostly Cloudy
3:35 PM 33.8 °F 25.3 °F 23.0 °F 65% 30.19 in 10.0 mi NNE 11.5 mph 16.1 mph N/A   Mostly Cloudy
3:55 PM 33.8 °F 27.7 °F 23.0 °F 65% 30.20 in 10.0 mi NNE 6.9 mph 16.1 mph N/A   Mostly Cloudy
4:15 PM 33.8 °F 25.8 °F 23.0 °F 65% 30.20 in 10.0 mi North 10.4 mph - N/A   Mostly Cloudy
4:35 PM 33.8 °F 25.8 °F 23.0 °F 65% 30.22 in 10.0 mi North 10.4 mph - N/A   Mostly Cloudy
4:55 PM 33.8 °F 25.8 °F 23.0 °F 65% 30.22 in 10.0 mi North 10.4 mph - N/A   Mostly Cloudy
5:15 PM 33.8 °F 27.0 °F 23.0 °F 65% 30.22 in 10.0 mi North 8.1 mph - N/A   Scattered Clouds
5:35 PM 33.8 °F 28.6 °F 21.2 °F 60% 30.22 in 10.0 mi NNE 5.8 mph - N/A   Clear
5:55 PM 32.0 °F 26.4 °F 23.0 °F 69% 30.22 in 10.0 mi NNE 5.8 mph - N/A   Clear
6:15 PM 32.0 °F 27.5 °F 23.0 °F 69% 30.22 in 10.0 mi North 4.6 mph - N/A   Clear
6:35 PM 32.0 °F - 23.0 °F 69% 30.22 in 10.0 mi Calm Calm - N/A   Clear
6:55 PM 32.0 °F 26.4 °F 23.0 °F 69% 30.22 in 10.0 mi North 5.8 mph - N/A   Clear
7:15 PM 32.0 °F 24.8 °F 21.2 °F 64% 30.23 in 10.0 mi NNW 8.1 mph - N/A   Clear
7:35 PM 32.0 °F 23.6 °F 21.2 °F 64% 30.23 in 10.0 mi North 10.4 mph - N/A   Clear
7:55 PM 32.0 °F 23.0 °F 19.4 °F 60% 30.23 in 10.0 mi North 11.5 mph 16.1 mph N/A   Clear
8:15 PM 32.0 °F 24.8 °F 19.4 °F 60% 30.24 in 10.0 mi North 8.1 mph - N/A   Clear
8:35 PM 32.0 °F 24.2 °F 19.4 °F 60% 30.24 in 10.0 mi North 9.2 mph - N/A   Clear
8:55 PM 32.0 °F 23.6 °F 17.6 °F 55% 30.24 in 10.0 mi North 10.4 mph - N/A   Clear
9:15 PM 32.0 °F 23.6 °F 17.6 °F 55% 30.24 in 10.0 mi North 10.4 mph - N/A   Clear
9:35 PM 30.2 °F 20.8 °F 17.6 °F 60% 30.24 in 10.0 mi North 11.5 mph - N/A   Clear
9:55 PM 30.2 °F 21.3 °F 15.8 °F 55% 30.24 in 10.0 mi North 10.4 mph - N/A   Clear
10:15 PM 30.2 °F 21.9 °F 14.0 °F 51% 30.25 in 10.0 mi North 9.2 mph - N/A   Clear
10:35 PM 30.2 °F 19.8 °F 14.0 °F 51% 30.25 in 10.0 mi North 13.8 mph 17.3 mph N/A   Clear
10:55 PM 30.2 °F 21.9 °F 14.0 °F 51% 30.25 in 10.0 mi North 9.2 mph - N/A   Clear
11:15 PM 30.2 °F 20.8 °F 14.0 °F 51% 30.25 in 10.0 mi North 11.5 mph - N/A   Clear
11:35 PM 30.2 °F 22.6 °F 14.0 °F 51% 30.25 in 10.0 mi North 8.1 mph - N/A   Clear
11:55 PM 30.2 °F 21.9 °F 14.0 °F 51% 30.24 in 10.0 mi North 9.2 mph - N/A   Clear